Location: Bartlow
(52.0833°N, 0.3167°E)
Time: 03:41:45
(UTC+00:00)

Meteor 1-26 Rocket - Visible Passes

Search period start: 16 April 2024 00:00
Search period end: 26 April 2024 00:00
Orbit: 806 x 928 km, 81.3° (Epoch: 15 April)

Date Brightness Start Highest point End Pass type
(mag) Time Alt. Az. Time Alt. Az. Time Alt. Az.
16 Apr 5.2 00:34:52 33° ESE 00:35:42 35° E 00:40:56 10° NNE visible
16 Apr 4.8 02:17:13 36° WSW 02:18:53 45° WNW 02:24:29 10° N visible
16 Apr 6.4 04:02:43 10° WNW 04:03:54 11° NW 04:05:06 10° NNW visible
17 Apr 5.2 00:27:48 34° ESE 00:28:36 36° E 00:33:51 10° NNE visible
17 Apr 4.8 02:10:09 36° WSW 02:11:47 45° WNW 02:17:24 10° N visible
17 Apr 6.5 03:55:41 10° NW 03:56:50 11° NW 03:57:58 10° NNW visible
18 Apr 5.2 00:20:43 35° ESE 00:21:29 36° E 00:26:47 10° NNE visible
18 Apr 4.8 02:03:04 36° WSW 02:04:41 44° WNW 02:10:19 10° N visible
18 Apr 6.5 03:48:40 10° NW 03:49:45 10° NW 03:50:49 10° NNW visible
19 Apr 5.1 00:13:37 35° ESE 00:14:23 37° E 00:19:42 10° NNE visible
19 Apr 4.9 01:55:58 36° WSW 01:57:35 44° WNW 02:03:14 10° N visible
19 Apr 6.5 03:41:38 10° NW 03:42:40 10° NW 03:43:41 10° NNW visible
20 Apr 5.1 00:06:31 36° ESE 00:07:17 37° E 00:12:38 10° NNE visible
20 Apr 4.9 01:48:52 35° WSW 01:50:30 44° WNW 01:56:08 10° N visible
20 Apr 6.5 03:34:37 10° NW 03:35:35 10° NW 03:36:33 10° NW visible
20 Apr 5.1 23:59:24 36° ESE 00:00:10 38° E 00:05:33 10° NNE visible
21 Apr 4.9 01:41:45 35° WSW 01:43:24 43° WNW 01:49:03 10° N visible
21 Apr 6.6 03:27:37 10° NW 03:28:30 10° NW 03:29:24 10° NW visible
21 Apr 5.1 23:52:17 36° ESE 23:53:04 38° E 23:58:28 10° NNE visible
22 Apr 5.0 01:34:38 35° WSW 01:36:19 43° WNW 01:41:57 10° N visible
22 Apr 6.6 03:20:36 10° NW 03:21:25 10° NW 03:22:14 10° NW visible
22 Apr 5.0 23:45:08 37° ESE 23:45:58 39° E 23:51:24 10° NNE visible
23 Apr 5.0 01:27:29 34° WSW 01:29:13 42° WNW 01:34:53 10° N visible
23 Apr 6.6 03:13:37 10° NW 03:14:20 10° NW 03:15:04 10° NW visible
23 Apr 5.0 23:37:59 37° ESE 23:38:52 39° E 23:44:19 10° NNE visible
24 Apr 5.0 01:20:20 33° WSW 01:22:08 42° WNW 01:27:48 10° N visible
24 Apr 6.7 03:06:39 10° NW 03:07:16 10° NW 03:07:52 10° NW visible
24 Apr 5.0 23:30:50 37° ESE 23:31:46 40° E 23:37:15 10° NNE visible
25 Apr 5.1 01:13:10 33° WSW 01:15:03 42° WNW 01:20:42 10° N visible
25 Apr 6.7 02:59:43 10° NW 03:00:11 10° NW 03:00:39 10° NW visible
25 Apr 5.0 23:23:39 37° ESE 23:24:40 40° E 23:30:10 10° NNE visible
